Highspire, PA

7:40 PM EDT on August 28, 2016 (GMT -0400)
Harrisburg International

Weather History for KMDT - October, 2012

Change the Weather History Date:

Wednesday, October 17, 2012

  Actual Average Record
Temperature  
Mean Temperature 52 °F 54 °F  
Max Temperature 65 °F 64 °F 86 °F (1908)
Min Temperature 38 °F 44 °F 31 °F (1937)
Degree Days  
Heating Degree Days 13 11  
Month to date heating degree days 165 151  
Since 1 July heating degree days 218 223  
Cooling Degree Days 0 0  
Month to date cooling degree days 5 10  
Year to date cooling degree days 1226 1003  
Growing Degree Days 2 (Base 50)    
Moisture  
Dew Point 42 °F    
Average Humidity 70    
Maximum Humidity 93    
Minimum Humidity 46    
Precipitation  
Precipitation 0.00 in 0.10 in 2.49 in (1932)
Month to date precipitation 1.36 1.94  
Year to date precipitation 35.16 32.95  
Snow  
Snow 0.00 in 0.00 in 0.00 in (2002)
Month to date snowfall 0.0 0.0  
Since 1 July snowfall 0.0 0.0  
Since 1 September snowfall 0.0 0.0  
Snow Depth 0.00 in    
Sea Level Pressure  
Sea Level Pressure 29.96 in    
Wind  
Wind Speed 1 mph (SE)    
Max Wind Speed 8 mph    
Max Gust Speed 10 mph    
Visibility 9 miles    
Events      
T = Trace of Precipitation, MM = Missing Value Source: NWS Daily Summary

Daily Weather History Graph

Daily Weather History Graph

Search for Another Location

Airport or City:

Trip Planner

Search our weather history database for the weather conditions in past years. The results will help you decide how hot, cold, wet, or windy it might be!

Date:

Astronomy

Oct. 17, 2012 Rise Set
Actual Time 7:20 AM EDT 6:23 PM EDT
Civil Twilight 6:52 AM EDT 6:51 PM EDT
Nautical Twilight 6:21 AM EDT 7:22 PM EDT
Astronomical Twilight 5:49 AM EDT 7:53 PM EDT
Moon 9:52 AM EDT (10/17) 7:57 PM EDT (10/17)
Length of Visible Light 11h 58m
Length of Day
11h 03m
Waxing Crescent, 7% of the Moon is Illuminated
Oct 17
Waxing Crescent
Oct 21
First Quarter
Oct 29
Full
Nov 6
Last Quarter
Nov 13
New

Hourly Weather History & Observations

Time (EDT) Temp. Windchill Dew Point Humidity Pressure Visibility Wind Dir Wind Speed Gust Speed Precip Events Conditions
12:56 AM 43.0 °F 41.3 °F 39.9 °F 89% 29.94 in 10.0 mi North 3.5 mph - N/A   Scattered Clouds
1:56 AM 41.0 °F - 39.9 °F 96% 29.95 in 9.0 mi Calm Calm - N/A   Mostly Cloudy
2:56 AM 41.0 °F - 37.9 °F 89% 29.96 in 9.0 mi Calm Calm - N/A   Mostly Cloudy
3:56 AM 42.1 °F - 39.0 °F 89% 29.94 in 9.0 mi Calm Calm - N/A   Mostly Cloudy
4:56 AM 41.0 °F - 39.0 °F 93% 29.96 in 8.0 mi Calm Calm - N/A   Scattered Clouds
5:56 AM 41.0 °F - 37.4 °F 87% 29.96 in 9.0 mi Calm Calm - N/A   Scattered Clouds
6:56 AM 39.0 °F - 37.0 °F 93% 29.99 in 9.0 mi Calm Calm - N/A   Clear
7:56 AM 39.0 °F - 37.9 °F 96% 30.00 in 6.0 mi Calm Calm - N/A   Partly Cloudy
8:56 AM 44.1 °F - 41.0 °F 89% 30.01 in 7.0 mi Calm Calm - N/A   Scattered Clouds
9:56 AM 46.0 °F - 43.0 °F 89% 30.03 in 6.0 mi Calm Calm - N/A   Scattered Clouds
10:56 AM 51.1 °F - 45.0 °F 80% 30.02 in 8.0 mi Calm Calm - N/A   Scattered Clouds
11:56 AM 55.0 °F - 43.0 °F 64% 30.01 in 10.0 mi SE 3.5 mph - N/A   Scattered Clouds
12:56 PM 57.9 °F - 42.1 °F 56% 29.98 in 10.0 mi Calm Calm - N/A   Mostly Cloudy
1:56 PM 60.1 °F - 39.9 °F 47% 29.95 in 10.0 mi Calm Calm - N/A   Mostly Cloudy
2:56 PM 62.1 °F - 42.1 °F 48% 29.94 in 10.0 mi Calm Calm - N/A   Mostly Cloudy
3:56 PM 64.0 °F - 44.1 °F 48% 29.93 in 10.0 mi SE 3.5 mph - N/A   Mostly Cloudy
4:56 PM 64.0 °F - 44.1 °F 48% 29.92 in 10.0 mi SE 5.8 mph - N/A   Scattered Clouds
5:56 PM 59.0 °F - 46.0 °F 62% 29.92 in 10.0 mi SE 4.6 mph - N/A   Scattered Clouds
6:56 PM 53.1 °F - 46.9 °F 80% 29.93 in 10.0 mi SE 3.5 mph - N/A   Partly Cloudy
7:56 PM 48.9 °F - 46.0 °F 90% 29.95 in 10.0 mi Calm Calm - N/A   Partly Cloudy
8:56 PM 51.1 °F - 46.9 °F 86% 29.95 in 9.0 mi SE 3.5 mph - N/A   Scattered Clouds
9:56 PM 50.0 °F - 46.9 °F 89% 29.95 in 8.0 mi ESE 3.5 mph - N/A   Partly Cloudy
10:56 PM 48.9 °F - 44.1 °F 83% 29.95 in 8.0 mi East 3.5 mph - N/A   Partly Cloudy
11:56 PM 48.9 °F - 44.1 °F 83% 29.94 in 8.0 mi Calm Calm - N/A   Clear